User: anonymous   Login
Location: Plymouth
(43.7570°N, 71.6890°W)
Time: 00:19:26
(UTC-04:00)
Language:

COSMOS 2406 - Orbit

View from above orbital plane
View from above orbital plane
View from above satellite
View from above satellite

Ground track
Ground track

The orbit data is extracted from the following two-line orbital elements,

1 28352U 04021A   16243.56485218 -.00000271  00000-0 -12332-3 0  9998
2 28352  71.0055  11.4727 0015003 187.5659 172.5238 14.11456170629838
Epoch (UTC): 30 August 2016 13:33:23
Eccentricity: 0.0015003
inclination: 71.0055°
perigee height: 843 km
apogee height: 865 km
right ascension of ascending node: 11.4727°
argument of perigee: 187.5659°
revolutions per day: 14.11456170
mean anomaly at epoch: 172.5238°
orbit number at epoch: 62983

The dashed part of the orbit path shows where the satellite is in the earth's shadow,  

DLR